Date,TemperatureHighF,TemperatureAvgF,TemperatureLowF,DewpointHighF,DewpointAvgF,DewpointLowF,HumidityHigh,HumidityAvg,HumidityLow,PressureMaxIn,PressureMinIn,WindSpeedMaxMPH,WindSpeedAvgMPH,GustSpeedMaxMPH,PrecipitationSumIn
2013-2-1,45.0,40.6,33.0,42.0,37.0,29.0,93,87,75,29.80,29.33,17,5,0,0.13
2013-2-2,42.7,36.7,30.3,38.0,32.2,27.0,91,83,72,30.16,29.81,12,4,0,0.02
2013-2-3,49.7,46.4,39.0,48.0,44.5,37.0,100,93,87,29.99,29.53,26,10,0,0.37
2013-2-4,48.1,40.0,34.3,46.0,36.6,32.0,94,87,79,29.58,29.33,25,14,0,0.23
2013-2-5,44.4,39.6,34.2,43.0,36.1,31.0,96,87,76,29.59,29.05,25,11,0,0.33
2013-2-6,45.2,38.4,30.8,34.0,30.9,28.0,93,75,60,30.12,29.61,18,7,0,0.00
2013-2-7,42.5,38.2,31.1,37.0,34.8,28.0,94,87,78,30.12,29.96,12,2,0,0.00
2013-2-8,44.9,41.2,36.9,40.0,37.8,35.0,96,88,77,30.15,30.04,15,4,0,0.06
2013-2-9,41.6,40.4,38.9,41.0,39.7,38.0,100,97,96,30.06,29.73,6,2,0,0.10
2013-2-10,38.8,35.9,33.8,38.0,35.2,33.0,98,97,94,29.73,29.32,10,5,0,0.38
2013-2-11,42.9,37.9,34.3,37.0,33.7,30.0,95,85,69,29.88,29.39,12,4,0,0.02
2013-2-12,39.4,35.6,32.8,33.0,30.9,30.0,89,83,73,30.02,29.89,10,2,0,0.00
2013-2-13,45.9,37.6,33.0,45.0,35.8,30.0,98,93,80,30.00,29.48,11,3,0,1.46
2013-2-14,48.2,44.6,43.2,45.0,42.3,41.0,95,92,88,29.81,29.51,13,6,0,0.16
2013-2-15,51.6,43.1,32.7,44.0,39.9,32.0,96,88,74,30.06,29.82,11,3,0,0.03
2013-2-16,47.0,41.9,33.9,47.0,40.9,33.0,98,96,89,30.07,30.03,7,1,0,0.06
2013-2-17,49.3,42.6,30.8,43.0,38.5,29.0,95,85,73,30.05,29.99,13,3,0,0.00
2013-2-18,48.1,35.0,27.7,38.0,31.7,26.0,97,88,67,30.09,30.02,6,1,0,0.01
2013-2-19,47.8,35.0,23.5,38.0,31.5,22.0,97,88,61,30.09,30.04,12,3,0,0.01
2013-2-20,42.5,37.7,29.8,38.0,34.6,27.0,97,89,79,30.25,30.08,9,3,0,0.00
2013-2-21,39.4,33.0,26.3,31.0,27.5,24.0,93,80,66,30.27,30.22,14,4,0,0.00
2013-2-22,37.1,34.4,32.7,28.0,26.4,24.0,83,73,68,30.27,30.23,8,2,0,0.00
2013-2-23,42.0,33.8,28.4,32.0,28.8,25.0,92,82,64,30.36,30.23,6,1,0,0.00
2013-2-24,45.5,35.3,27.4,37.0,31.7,26.0,96,87,69,30.44,30.35,7,1,0,0.01
2013-2-25,47.7,36.0,26.6,38.0,32.1,25.0,97,86,66,30.57,30.43,8,2,0,0.00
2013-2-26,50.4,40.6,30.6,40.0,35.4,29.0,94,82,63,30.64,30.57,11,4,0,0.01
2013-2-27,47.8,35.7,30.0,44.0,34.5,29.0,98,95,81,30.65,30.56,10,2,0,0.01
2013-2-28,55.1,40.7,31.8,46.0,38.4,31.0,99,92,68,30.56,30.46,3,1,0,0.01